HELLAS-SAT 3            
1 42814U 17040A   19266.51877938  .00000141  00000-0  00000+0 0  9998
2 42814   0.0685  50.2965 0000901  75.3331 102.2286  1.00274221  8221
GSAT-17                 
1 42815U 17040B   19266.53038326 -.00000269  00000-0  00000+0 0  9993
2 42815   0.0301 108.7378 0004422 129.4603  48.3478  1.00270417  8214
ARIANE 5 R/B            
1 42816U 17040C   19265.74234979  .00001417  00000-0  45368-3 0  9993
2 42816   2.7170  84.0305 7265214 132.4553 317.8586  2.29812767 18674
ARIANE 5 DEB [SYLDA]    
1 42817U 17040D   19265.23903899  .00010098  00000-0  22845-2 0  9991
2 42817   2.9726  48.4724 7039712 201.3701 101.1725  2.59143470 20129